User: anonymous   Login
Location: Fort Wayne
(41.1310°N, 85.1290°W)
Time: 03:52:48
(UTC-05:00)
Language:

CZ-2C R/B - Orbit

View from above orbital plane
View from above orbital plane
View from above satellite
View from above satellite

Ground track
Ground track

The orbit data is extracted from the following two-line orbital elements,

1 36089U 09061B   15061.10263881  .00000375  00000-0  10488-3 0  9993
2 36089 098.0810 088.6727 0083657 105.8498 319.7493 14.49372133280290
Epoch (UTC): 02 March 2015 02:27:47
Eccentricity: 0.0083657
inclination: 98.0810°
perigee height: 668 km
apogee height: 787 km
right ascension of ascending node: 88.6727°
argument of perigee: 105.8498°
revolutions per day: 14.49372133
mean anomaly at epoch: 319.7493°
orbit number at epoch: 28029

The dashed part of the orbit path shows where the satellite is in the earth's shadow,  

DLR